Buka menu utama

Daftar episode Smallville

artikel daftar Wikimedia
Smallville 2001 logo.svg

Smallville adalah sebuah serial televisi, yang dikembangkan oleh Alfred Gough dan Miles Millar, berdasarkan pada karakter DC Comics Superman. Di Amerika Serikat, episode pertama serial tersebut aslinya disiarkan pada 16 Oktober 2001; serial tersebut mengakhiri penayangan sepuluh tahunnya pada 13 Mei 2011, dengan 217 episode. Lima episode pertama disiarkan di The WB; setelah penggabungan The WB dengan UPN pada September 2006, Smallville kemudian ditayangkan pada jaringan jaringan terkombinasi yang baru, yang bernama The CW.[1] Seluruh sepuluh musim sekarang tersedia dalam bentuk DVD di Kawasan-kawasan 1, 2, dan 4. Sejak tayang perdana, serial tersebut rata-rata memiliki 4.47 juta penonton per episode sepanjang sepuluh musimnya.

Smallville mengisahkan kehidupan Clark Kent (Tom Welling), bermula saat ia masih remaja di kota Smallville, Kansas, dan masuk SMA, perguruan tinggi dan permulaannya di Daily Planet sebelum ia mengadopsi pesona "Superman". Selama penayangan serial tersebut, Clark Kent memegang kekuatan-kekuatan super (penglihatan sinar x, pendengaran super, dll), eksplokrasi asal muasal ekstraterestrialnya dan penemuan takdir sebenarnya. Serial tersebut juga menyoroti orang-orang dalam kehidupan Clark Kent: orang tua manusianya, Jonathan Kent (John Schneider) dan Martha Kent (Annette O'Toole); para temannya Chloe Sullivan (Allison Mack) dan Pete Ross (Sam Jones III); pasangannya untuk tujuh musim Lana Lang (Kristin Kreuk); sepupu Chloe dan pasangan Clark sejak musim delapan, Lois Lane (Erica Durance); dan persahabatannya dengan Lex Luthor (Michael Rosenbaum) dan bagaimana ini secara bertahap berujung pada permusuhan mereka.

Daftar isi

Ikhtisar serialSunting

MusimEpisodeWaktu tayang
Awal tayangAkhir tayangJaringan
12116 Oktober 2001 (2001-10-16)21 Mei 2002 (2002-5-21)The WB
22324 September 2002 (2002-9-24)20 Mei 2003 (2003-5-20)
3221 Oktober 2003 (2003-10-1)19 Mei 2004 (2004-5-19)
42222 September 2004 (2004-9-22)18 Mei 2005 (2005-5-18)
52229 September 2005 (2005-9-29)11 Mei 2006 (2006-5-11)
62228 September 2006 (2006-9-28)17 Mei 2007 (2007-5-17)The CW
72027 September 2007 (2007-9-27)15 Mei 2008 (2008-5-15)
82218 September 2008 (2008-9-18)14 Mei 2009 (2009-5-14)
92125 September 2009 (2009-9-25)14 Mei 2010 (2010-5-14)
102224 September 2010 (2010-9-24)13 Mei 2011 (2011-5-13)

EpisodeSunting

Musim 1 (2001–02)Sunting

No. dalam
serial
No. dalam
musim
Judul Disutrdarai oleh Ditulis oleh Tanggal penayangan asli Kode
produksi
Penonton AS
(juta)
11"Pilot"David NutterAlfred Gough & Miles Millar16 Oktober 2001 (2001-10-16)4751658.4[2]
22"Metamorphosis"Michael Watkins
& Philip Sgriccia
Alfred Gough & Miles Millar23 Oktober 2001 (2001-10-23)2276017.3[3]
33"Hothead"Greg BeemanGreg Walker30 Oktober 2001 (2001-10-30)2276036.0[3]
44"X-Ray"James FrawleyMark Verheiden6 November 2001 (2001-11-6)2276046.6[3]
55"Cool"James A. ContnerMichael Green13 November 2001 (2001-11-13)2276055.9[3]
66"Hourglass"Chris LongDoris Egan20 November 2001 (2001-11-20)2276066.4[3]
77"Craving"Philip SgricciaMichael Green27 November 2001 (2001-11-27)2276077.4[3]
88"Jitters"Michael WatkinsCherie Bennett & Jeff Gottesfeld11 Desember 2001 (2001-12-11)2276025.8[3]
99"Rogue"David CarsonMark Verheiden15 Januari 2002 (2002-1-15)2276085.8[3]
1010"Shimmer"D. J. CarusoMark Verheiden & Michael Green29 Januari 2002 (2002-1-29)2276097.0[3]
1111"Hug"Chris LongDoris Egan5 Februari 2002 (2002-2-5)2276106.4[3]
1212"Leech"Greg BeemanTimothy Schlattmann12 Februari 2002 (2002-2-12)2276116.1[3]
1313"Kinetic"Robert SingerPhilip Levens26 Februari 2002 (2002-2-26)2276126.2[3]
1414"Zero"Michael KatlemanDrama televisi oleh: Mark Verheiden
Cerita oleh: Alfred Gough & Miles Millar
12 Maret 2002 (2002-3-12)2276136.9[3]
1515"Nicodemus"James MarshallDrama televisi oleh: Michael Green
Cerita oleh: Greg Walker
19 Maret 2002 (2002-3-19)2276146.7[3]
1616"Stray"Paul ShapiroPhilip Levens16 April 2002 (2002-4-16)2276156.0[3]
1717"Reaper"Terrence O'HaraCameron Litvack23 April 2002 (2002-4-23)2276165.5[3]
1818"Drone"Michael KatlemanMichael Green & Philip Levens30 April 2002 (2002-4-30)2276175.7[3]
1919"Crush"James MarshallPhilip Levens & Alfred Gough & Miles Millar7 Mei 2002 (2002-5-7)2276186.4[3]
2020"Obscura"Terrence O'HaraDrama televisi oleh: Mark Verheiden & Michael Green
Cerita oleh: Greg Walker
14 Mei 2002 (2002-5-14)2276196.1[3]
2121"Tempest"Greg BeemanDrama televisi oleh: Alfred Gough & Miles Millar
Cerita oleh: Philip Levens
21 Mei 2002 (2002-5-21)2276206.0[3]

Musim 2 (2002–03)Sunting

No. dalam
serial
No. dalam
musim
Judul Disutrdarai oleh Ditulis oleh Tanggal penayangan asli Kode
produksi
Penonton AS
(juta)
221"Vortex"Greg BeemanDrama televisi oleh: Philip Levens
Cerita oleh: Alfred Gough & Miles Millar
24 September 2002 (2002-9-24)1750518.7[4]
232"Heat"James MarshallMark Verheiden1 Oktober 2002 (2002-10-1)1750528.1[4]
243"Duplicity"Steve MinerTodd Slavkin & Darren Swimmer8 Oktober 2002 (2002-10-8)1750538.8[4]
254"Red"Jeff WoolnoughJeph Loeb15 Oktober 2002 (2002-10-15)1750548.9[4]
265"Nocturne"Rick WallaceBrian Peterson & Kelly Souders22 Oktober 2002 (2002-10-22)1750558.3[4]
276"Redux"Chris LongRussel Friend & Garrett Lerner29 Oktober 2002 (2002-10-29)2276218.2[4]
287"Lineage"Greg BeemanDrama televisi oleh: Kenneth Biller
Cerita oleh: Alfred Gough & Miles Millar
5 November 2002 (2002-11-5)1750569.4[4]
298"Ryan"Terrence O'HaraPhilip Levens12 November 2002 (2002-11-12)1750577.4[4]
309"Dichotic"Craig ZiskMark Verheiden19 November 2002 (2002-11-19)1750588.3[4]
3110"Skinwalker"Marita GrabiakDrama televisi oleh: Brian Peterson & Kelly Souders
Cerita oleh: Mark Warshaw
26 November 2002 (2002-11-26)1750598.6[4]
3211"Visage"William GereghtyTodd Slavkin & Darren Swimmer14 Januari 2003 (2003-1-14)1750607.3[4]
3312"Insurgence"James MarshallKenneth Biller & Jeph Loeb21 Januari 2003 (2003-1-21)1750626.6[4]
3413"Suspect"Greg BeemanMark Verheiden & Philip Levens28 Januari 2003 (2003-1-28)1750617.5[4]
3514"Rush"Rick RosenthalTodd Slavkin & Darren Swimmer4 Februari 2003 (2003-2-4)1750638.1[4]
3615"Prodigal"Greg BeemanBrian Peterson & Kelly Souders11 Februari 2003 (2003-2-11)1750647.4[4]
3716"Fever"Bill GereghtyMatthew Okumura18 Februari 2003 (2003-2-18)1750657.9[4]
3817"Rosetta"James MarshallAlfred Gough & Miles Millar25 Februari 2003 (2003-2-25)1750668.7[4]
3918"Visitor"Rick RosenthalPhilip Levens15 April 2003 (2003-4-15)1750675.9[4]
4019"Precipice"Thomas J. WrightClint Carpenter22 April 2003 (2003-4-22)1750686.7[4]
4120"Witness"Rick WallaceMark Verheiden29 April 2003 (2003-4-29)1750696.5[4]
4221"Accelerate"James MarshallDrama televisi oleh: Brian Peterson & Kelly Souders
Cerita oleh: Todd Slavkin & Darren Swimmer
6 Mei 2003 (2003-5-6)1750707.0[4]
4322"Calling"Terrence O'HaraKenneth Biller13 Mei 2003 (2003-5-13)1750717.1[4]
4423"Exodus"Greg BeemanAlfred Gough & Miles Millar20 Mei 2003 (2003-5-20)1750727.5[4]

Musim 3 (2003–04)Sunting

No. dalam
serial
No. dalam
musim
Judul Disutrdarai oleh Ditulis oleh Tanggal penayangan asli Kode
produksi
Penonton AS
(juta)
451"Exile"Greg BeemanAlfred Gough & Miles Millar1 Oktober 2003 (2003-10-1)1762016.80[5]
462"Phoenix"James MarshallKelly Souders & Brian Peterson8 Oktober 2003 (2003-10-8)1762026.70[5]
473"Extinction"Michael KatlemanTodd Slavkin & Darren Swimmer15 Oktober 2003 (2003-10-15)1762036.50[5]
484"Slumber"Daniel AttiasDrew Z. Greenberg22 Oktober 2003 (2003-10-22)1762046.90[5]
495"Perry"Jeannot SzwarcMark Verheiden29 Oktober 2003 (2003-10-29)1762056.70[5]
506"Relic"Marita GrabiakKelly Souders & Brian Peterson5 November 2003 (2003-11-5)1762066.70[5]
517"Magnetic"David JacksonHolly Harold12 November 2003 (2003-11-12)1762076.90[5]
528"Shattered"Ken BillerKen Biller19 November 2003 (2003-11-19)1762086.40[5]
539"Asylum"Greg BeemanTodd Slavkin & Darren Swimmer14 Januari 2004 (2004-1-14)1762095.60[5]
5410"Whisper"Tom WrightKen Horton21 Januari 2004 (2004-1-21)1762105.10[5]
5511"Delete"Pat WilliamsKelly Souders & Brian Peterson28 Januari 2004 (2004-1-28)1762115.50[5]
5612"Hereafter"Greg Beeman & James MarshallMark Verheiden & Drew Greenberg4 Februari 2004 (2004-2-4)1762125.30[5]
5713"Velocity"Jeannot SzwarcTodd Slavkin & Darren Swimmer11 Februari 2004 (2004-2-11)1762135.00[5]
5814"Obsession"James MarshallHolly Harold18 Februari 2004 (2004-2-18)1762145.33[6]
5915"Resurrection"Terrence O'HaraTodd Slavkin & Darren Swimmer25 Februari 2004 (2004-2-25)1762154.97[7]
6016"Crisis"Ken BillerKelly Souders & Brian Peterson3 Maret 2004 (2004-3-3)1762165.26[8]
6117"Legacy"Greg BeemanJeph Loeb14 April 2004 (2004-4-14)1762174.48[9]
6218"Truth"James MarshallDrew Greenberg21 April 2004 (2004-4-21)1762184.43[10]
6319"Memoria"Miles MillarAlfred Gough & Miles Millar28 April 2004 (2004-4-28)1762194.32[11]
6420"Talisman"John SchneiderKen Biller5 Mei 2004 (2004-5-5)1762204.72[12]
6521"Forsaken"Terrence O'HaraKelly Souders & Brian Peterson12 Mei 2004 (2004-5-12)1762214.54[13]
6622"Covenant"Greg BeemanDrama televisi oleh: Alfred Gough & Miles Millar
Cerita oleh: Todd Slavkin & Darren Swimmer
19 Mei 2004 (2004-5-19)1762225.92[14]

Musim 4 (2004–05)Sunting

No. dalam
serial
No. dalam
musim
Judul Disutrdarai oleh Ditulis oleh Tanggal penayangan asli Kode
produksi
Penonton AS
(juta)
671"Crusade"Greg BeemanAlfred Gough & Miles Millar22 September 2004 (2004-9-22)2T52016.07[15]
682"Gone"James MarshallKelly Souders & Brian Peterson29 September 2004 (2004-9-29)2T52025.66[16]
693"Façade"Pat WilliamsHolly Harold6 Oktober 2004 (2004-10-6)2T52035.45[17]
704"Devoted"David CarsonLuke Schelhaas13 Oktober 2004 (2004-10-13)2T52046.20[18]
715"Run"David BarrettSteven S. DeKnight20 Oktober 2004 (2004-10-20)2T52055.41[19]
726"Transference"James MarshallTodd Slavkin & Darren Swimmer27 Oktober 2004 (2004-10-27)2T52065.69[20]
737"Jinx"Paul ShapiroMark Warshaw3 November 2004 (2004-11-3)2T52075.02[21]
748"Spell"Jeannot SzwarcSteven S. DeKnight10 November 2004 (2004-11-10)2T52085.51[22]
759"Bound"Terrence O'HaraLuke Schelhaas17 November 2004 (2004-11-17)2T52095.06[23]
7610"Scare"David CarsonKelly Souders & Brian Peterson1 Desember 2004 (2004-12-1)2T52104.89[24]
7711"Unsafe"Greg BeemanSteven S. DeKnight & Jeph Loeb26 Januari 2005 (2005-1-26)2T52114.21[25]
7812"Pariah"Paul ShapiroHolly Harold2 Februari 2005 (2005-2-2)2T52124.78[26]
7913"Recruit"Jeannot SzwarcTodd Slavkin & Darren Swimmer9 Februari 2005 (2005-2-9)2T52134.91[27]
8014"Krypto"James MarshallLuke Schelhaas16 Februari 2005 (2005-2-16)2T52145.08[28]
8115"Sacred"Brad TurnerKelly Souders & Brian Peterson23 Februari 2005 (2005-2-23)2T52155.26[29]
8216"Lucy"David BarrettDrama televisi oleh: Neil Sadhu & Daniel Sulzberg
Cerita oleh: Neil Sadhu
2 Maret 2005 (2005-3-2)2T52164.51[30]
8317"Onyx"Terrence O'HaraSteven S. DeKnight13 April 2005 (2005-4-13)2T52173.85[31]
8418"Spirit"Whitney RansickLuke Schelhaas20 April 2005 (2005-4-20)2T52184.39[32]
8519"Blank"Jeannot SzwarcKelly Souders & Brian Peterson27 April 2005 (2005-4-27)2T52194.59[33]
8620"Ageless"Steven S. DeKnightSteven S. DeKnight4 Mei 2005 (2005-5-4)2T52204.51[34]
8721"Forever"James MarshallBrian Peterson & Kelly Souders11 Mei 2005 (2005-5-11)2T52213.96[35]
8822"Commencement"Greg BeemanTodd Slavkin & Darren Swimmer18 Mei 2005 (2005-5-18)2T52225.47[36]

Musim 5 (2005–06)Sunting

No. dalam
serial
No. dalam
musim
Judul Disutrdarai oleh Ditulis oleh Tanggal penayangan asli Kode
produksi
Penonton AS
(juta)
891"Arrival"James MarshallTodd Slavkin & Darren Swimmer29 September 2005 (2005-9-29)2T64015.90[37]
902"Mortal"Terrence O'HaraSteven S. DeKnight6 Oktober 2005 (2005-10-6)2T64025.84[38]
913"Hidden"Whitney RansickKelly Souders & Brian Peterson13 Oktober 2005 (2005-10-13)2T64035.92[39]
924"Aqua"Bradford MayTodd Slavkin & Darren Swimmer20 Oktober 2005 (2005-10-20)2T64046.40[40]
935"Thirst"Paul ShapiroSteven S. DeKnight27 Oktober 2005 (2005-10-27)2T64055.78[41]
946"Exposed"Jeannot SzwarcKelly Souders & Brian Peterson3 November 2005 (2005-11-3)2T64065.41[42]
957"Splinter"James MarshallSteven S. DeKnight10 November 2005 (2005-11-10)2T64075.51[43]
968"Solitude"Paul ShapiroTodd Slavkin & Darren Swimmer17 November 2005 (2005-11-17)2T64085.97[44]
979"Lexmas"Rick RosenthalHolly Harold8 Desember 2005 (2005-12-8)2T64095.37[45]
9810"Fanatic"Michael RohlWendy Mericle12 Januari 2006 (2006-1-12)2T64105.45[46]
9911"Lockdown"Peter EllisSteven S. DeKnight19 Januari 2006 (2006-1-19)2T64114.90[47]
10012"Reckoning"Greg BeemanKelly Souders & Brian Peterson26 Januari 2006 (2006-1-26)2T64126.28[48]
10113"Vengeance"Jeannot SzwarcAl Septien & Turi Meyer2 Februari 2006 (2006-2-2)2T64135.37[49]
10214"Tomb"Whitney RansickSteven S. DeKnight9 Februari 2006 (2006-2-9)2T64145.41[50]
10315"Cyborg"Glen WinterCaroline Dries16 Februari 2006 (2006-2-16)2T64156.24[51]
10416"Hypnotic"Michael RohlTodd Slavkin & Darren Swimmer30 Maret 2006 (2006-3-30)2T64164.78[52]
10517"Void"Jeannot SzwarcHolly Harold6 April 2006 (2006-4-6)2T64174.24[53]
10618"Fragile"Tom WellingTodd Slavkin & Darren Swimmer13 April 2006 (2006-4-13)2T64183.94[54]
10719"Mercy"James MarshallSteven S. DeKnight20 April 2006 (2006-4-20)2T64194.41[55]
10820"Fade"Terrence O'HaraTuri Meyer & Al Septien27 April 2006 (2006-4-27)2T64204.34[56]
10921"Oracle"Patrick NorrisDrama televisi oleh: Caroline Dries
Cerita oleh: Neil Sadhu & Daniel Sulzberg
4 Mei 2006 (2006-5-4)2T64214.81[57]
11022"Vessel"James MarshallKelly Souders & Brian Peterson11 Mei 2006 (2006-5-11)2T64224.85[58]

Musim 6 (2006–07)Sunting

No. dalam
serial
No. dalam
musim
Judul Disutrdarai oleh Ditulis oleh Tanggal penayangan asli Kode
produksi
Penonton AS
(juta)
1111"Zod"James MarshallSteven S. DeKnight28 September 2006 (2006-9-28)2T77014.96[59]
1122"Sneeze"Paul ShapiroTodd Slavkin & Darren Swimmer5 Oktober 2006 (2006-10-5)2T77024.52[60]
1133"Wither"Whitney RansickTracy Bellomo12 Oktober 2006 (2006-10-12)2T77034.88[61]
1144"Arrow"Michael RohlBrian Peterson & Kelly Souders19 Oktober 2006 (2006-10-19)2T77044.71[62]
1155"Reunion"Jeannot SzwarcSteven S. DeKnight26 Oktober 2006 (2006-10-26)2T77054.79[63]
1166"Fallout"Glen WinterHolly Harold2 November 2006 (2006-11-2)2T77065.01[64]
1177"Rage"Whitney RansickTodd Slavkin & Darren Swimmer9 November 2006 (2006-11-9)2T77074.46[65]
1188"Static"James ConwayShintaro Shimosawa & James Morris16 November 2006 (2006-11-16)2T77084.70[66]
1199"Subterranean"Rick RosenthalCaroline Dries7 Desember 2006 (2006-12-7)2T77094.31[67]
12010"Hydro"Tom WellingBrian Peterson & Kelly Souders11 Januari 2007 (2007-1-11)2T77104.68[68]
12111"Justice"Steven S. DeKnightSteven S. DeKnight18 Januari 2007 (2007-1-18)2T77115.26[69]
12212"Labyrinth"Whitney RansickAl Septien & Turi Meyer25 Januari 2007 (2007-1-25)2T77125.00[70]
12313"Crimson"Glen WinterBrian Peterson & Kelly Souders1 Februari 2007 (2007-2-1)2T77134.91[71]
12414"Trespass"Michael RohlTracy A. Bellomo8 Februari 2007 (2007-2-8)2T77144.74[72]
12515"Freak"Michael RosenbaumTodd Slavkin & Darren Swimmer15 Februari 2007 (2007-2-15)2T77154.76[73]
12616"Promise"Rick RosenthalKelly Souders & Brian Peterson15 Maret 2007 (2007-3-15)2T77164.69[74]
12717"Combat"James MarshallTuri Meyer & Al Septien22 Maret 2007 (2007-3-22)2T77174.07[75]
12818"Progeny"Terrence O'HaraGenevieve Sparling19 April 2007 (2007-4-19)2T77183.98[76]
12919"Nemesis"Mairzee AlmasCaroline Dries26 April 2007 (2007-4-26)2T77193.88[77]
13020"Noir"Jeannot SzwarcBrian Peterson & Kelly Souders3 Mei 2007 (2007-5-3)2T77203.59[78]
13121"Prototype"Mat BeckSteven S. DeKnight10 Mei 2007 (2007-5-10)2T77213.43[79]
13222"Phantom"James MarshallTodd Slavkin & Darren Swimmer17 Mei 2007 (2007-5-17)2T77224.14[80]

Musim 7 (2007–08)Sunting

No. dalam
serial
No. dalam
musim
Judul Disutrdarai oleh Ditulis oleh Tanggal penayangan asli Kode
produksi
Penonton AS
(juta)
1331"Bizarro"Michael RohlBrian Peterson & Kelly Souders27 September 2007 (2007-9-27)3T63015.18[81]
1342"Kara"James ConwayTodd Slavkin & Darren Swimmer4 Oktober 2007 (2007-10-4)3T63024.59[82]
1353"Fierce"Whitney RansickHolly Harold11 Oktober 2007 (2007-10-11)3T63034.82[83]
1364"Cure"Rick RosenthalAl Septien & Turi Meyer18 Oktober 2007 (2007-10-18)3T63045.18[84]
1375"Action"Mairzee AlmasCaroline Dries25 Oktober 2007 (2007-10-25)3T63064.65[85]
1386"Lara"James ConwayDon Whitehead & Holly Henderson1 November 2007 (2007-11-1)3T63054.31[86]
1397"Wrath"Charles BeesonKelly Souders & Brian Peterson8 November 2007 (2007-11-8)3T63074.64[87]
1408"Blue"Glen WinterTodd Slavkin & Darren Swimmer15 November 2007 (2007-11-15)3T63084.51[88]
1419"Gemini"Whitney RansickCaroline Dries13 Desember 2007 (2007-12-13)3T63093.71[89]
14210"Persona"Todd SlavkinDon Whitehead & Holly Henderson31 Januari 2008 (2008-1-31)3T63103.81[90]
14311"Siren"Kevin G. FairKelly Souders & Brian Peterson7 Februari 2008 (2008-2-7)3T63114.01[91]
14412"Fracture"James MarshallDrama televisi oleh: Caroline Dries
Cerita oleh: Al Septien & Turi Meyer
14 Februari 2008 (2008-2-14)3T63123.67[92]
14513"Hero"Michael RohlAaron & Todd Helbing13 Maret 2008 (2008-3-13)3T63133.80[93]
14614"Traveler"Glen WinterDrama televisi oleh: Don Whitehead & Holly Henderson
Cerita oleh: Al Septien & Turi Meyer
20 Maret 2008 (2008-3-20)3T63143.44[94]
14715"Veritas"James MarshallKelly Souders & Brian Peterson27 Maret 2008 (2008-3-27)3T63153.86[95]
14816"Descent"Ken HortonDon Whitehead & Holly Henderson17 April 2008 (2008-4-17)3T63163.61[96]
14917"Sleeper"Whitney RansickCaroline Dries24 April 2008 (2008-4-24)3T63173.62[97]
15018"Apocalypse"Tom WellingAl Septien & Turi Meyer1 Mei 2008 (2008-5-1)3T63183.81[98]
15119"Quest"Kenneth BillerHolly Harold8 Mei 2008 (2008-5-8)3T63193.99[99]
15220"Arctic"Todd SlavkinDon Whitehead & Holly Henderson15 Mei 2008 (2008-5-15)3T63203.85[100]

Musim 8 (2008–09)Sunting

No. dalam
serial
No. dalam
musim
Judul Disutrdarai oleh Ditulis oleh Tanggal penayangan asli Kode
produksi
Penonton AS
(juta)
1531"Odyssey"Kevin G. FairDrama televisi oleh: Todd Slavkin & Darren Swimmer
Cerita oleh: Brian Peterson & Kelly Souders
18 September 2008 (2008-9-18)3T74514.34[101]
1542"Plastique"Rick RosenthalDon Whitehead & Holly Henderson25 September 2008 (2008-9-25)3T74524.18[102]
1553"Toxic"James ConwayAl Septien & Turi Meyer2 Oktober 2008 (2008-10-2)3T74544.11[103]
1564"Instinct"Mairzee AlmasCaroline Dries9 Oktober 2008 (2008-10-9)3T74534.05[104]
1575"Committed"Glen WinterBryan Q. Miller16 Oktober 2008 (2008-10-16)3T74554.18[105]
1586"Prey"Michael RohlKelly Souders & Brian Peterson23 Oktober 2008 (2008-10-23)3774564.15[106]
1597"Identity"Mairzee AlmasTodd Slavkin & Darren Swimmer30 Oktober 2008 (2008-10-30)3T74574.32[107]
1608"Bloodline"Michael RohlCaroline Dries6 November 2008 (2008-11-6)3T74594.45[108]
1619"Abyss"Kevin G. FairDon Whitehead & Holly Henderson13 November 2008 (2008-11-13)3T74583.55[109]
16210"Bride"Jeannot SzwarcAl Septien & Turi Meyer20 November 2008 (2008-11-20)3T74604.18[110]
16311"Legion"Glen WinterGeoff Johns15 Januari 2009 (2009-1-15)3T74614.29[111]
16412"Bulletproof"Morgan BeggsBryan Miller22 Januari 2009 (2009-1-22)3T74623.85[112]
16513"Power"Allison MackTodd Slavkin & Darren Swimmer29 Januari 2009 (2009-1-29)3T74634.21[113]
16614"Requiem"Michael RohlDon Whitehead & Holly Henderson5 Februari 2009 (2009-2-5)3T74643.93[114]
16715"Infamous"Glen WinterCaroline Dries12 Maret 2009 (2009-3-12)3T74653.56[115]
16816"Turbulence"Kevin G. FairAl Septien & Turi Meyer19 Maret 2009 (2009-3-19)3T74663.49[116]
16917"Hex"Mairzee AlmasBryan Miller26 Maret 2009 (2009-3-26)3T74673.79[117]
17018"Eternal"James MarshallBrian Peterson & Kelly Souders2 April 2009 (2009-4-2)3T74683.84[118]
17119"Stiletto"Kevin G. FairCaroline Dries23 April 2009 (2009-4-23)3T74693.10[119]
17220"Beast"Michael RohlGenevieve Sparling30 April 2009 (2009-4-30)3T74703.23[120]
17321"Injustice"Tom WellingAl Septien & Turi Meyer7 Mei 2009 (2009-5-7)3T74713.39[121]
17422"Doomsday"James MarshallBrian Peterson & Kelly Souders14 Mei 2009 (2009-5-14)3T74723.13[122]

Musim 9 (2009–10)Sunting

No. dalam
serial
No. dalam
musim
Judul Disutrdarai oleh Ditulis oleh Tanggal penayangan asli Kode
produksi
Penonton AS
(juta)
1751"Savior"Kevin G. FairKelly Souders & Brian Peterson25 September 2009 (2009-9-25)3X52512.58[123]
1762"Metallo"Mairzee AlmasDon Whitehead & Holly Henderson2 Oktober 2009 (2009-10-2)3X52522.24[124]
1773"Rabid"Michael RohlJordan Hawley9 Oktober 2009 (2009-10-9)3X52532.30[125]
1784"Echo"Wayne RoseBryan Miller16 Oktober 2009 (2009-10-16)3X52542.61[126]
1795"Roulette"Kevin G. FairGenevieve Sparling23 Oktober 2009 (2009-10-23)3X52562.52[127]
1806"Crossfire"Michael RohlDon Whitehead & Holly Henderson30 Oktober 2009 (2009-10-30)3X52572.57[128]
1817"Kandor"Jeannot SzwarcAl Septien & Turi Meyer6 November 2009 (2009-11-6)3X52582.63[129]
1828"Idol"Glen WinterAnne Cofell Saunders13 November 2009 (2009-11-13)3X52552.68[130]
1839"Pandora"Morgan BeggsDrew Landis & Julia Swift20 November 2009 (2009-11-20)3X52592.45[131]
18410"Disciple"Mairzee AlmasJordan Hawley29 Januari 2010 (2010-1-29)3X52602.52[132]
18511[N 1]"Absolute Justice"Glen Winter (Jam ke-1)
Tom Welling (Jam ke-2)
Geoff Johns5 Februari 2010 (2010-2-5)3X5262
3X5263
2.77[135]
18612"Warrior"Allison MackBryan Miller12 Februari 2010 (2010-2-12)3X52612.48[136]
18713"Persuasion"Christopher PetryAnne Cofell Saunders19 Februari 2010 (2010-2-19)3X52642.42[137]
18814"Conspiracy"Turi MeyerAl Septien & Turi Meyer26 Februari 2010 (2010-2-26)3X52652.53[138]
18915"Escape"Kevin G. FairGenevieve Sparling2 April 2010 (2010-4-2)3X52662.13[139]
19016"Checkmate"Tim ScanlanJohn Chisholm9 April 2010 (2010-4-9)3X52672.13[140]
19117"Upgrade"Michael RohlDrew Landis & Julia Swift16 April 2010 (2010-4-16)3X52681.84[141]
19218"Charade"Brian PetersonDon Whitehead & Holly Henderson23 April 2010 (2010-4-23)3X52692.23[142]
19319"Sacrifice"Kevin G. FairDrama televisi oleh: Justin Hartley & Walter Wong & Bryan Miller
Cerita oleh: Justin Hartley & Walter Wong
30 April 2010 (2010-4-30)3X52701.89[143]
19420"Hostage"Glen WinterJordan Hawley & Anne Cofell Saunders7 Mei 2010 (2010-5-7)3X52711.92[144]
19521"Salvation"Greg BeemanAl Septien & Turi Meyer14 Mei 2010 (2010-5-14)3X52722.45[145]

Musim 10 (2010–11)Sunting

No. dalam
serial
No. dalam
musim
Judul Disutrdarai oleh Ditulis oleh Tanggal penayangan asli Kode
produksi
Penonton AS
(juta)
1961"Lazarus"Kevin G. FairDon Whitehead & Holly Henderson24 September 2010 (2010-09-24)3X60012.98[146]
1972"Shield"Glen WinterJordan Hawley1 Oktober 2010 (2010-10-1)3X60022.38[147]
1983"Supergirl"Mairzee AlmasAnne Cofell Saunders8 Oktober 2010 (2010-10-8)3X60032.30[148]
1994[N 2]"Homecoming"Jeannot SzwarcBrian Peterson & Kelly Souders15 Oktober 2010 (2010-10-15)3X60043.19[151]
2005"Isis"James MarshallGenevieve Sparling22 Oktober 2010 (2010-10-22)3X60052.60[152]
2016"Harvest"Turi MeyerAl Septien & Turi Meyer29 Oktober 2010 (2010-10-29)3X60072.96[153]
2027"Ambush"Christopher PetryDon Whitehead & Holly Henderson5 November 2010 (2010-11-5)3X60062.63[154]
2038"Abandoned"Kevin G. FairDrew Landis & Julia Swift12 November 2010 (2010-11-12)3X60082.90[155]
2049"Patriot"Tom WellingJohn Chisholm19 November 2010 (2010-11-19)3X60092.60[156]
20510"Luthor"Kelly SoudersBryan Q. Miller3 Desember 2010 (2010-12-3)3X60102.76[157]
20611"Icarus"Mairzee AlmasGenevieve Sparling10 Desember 2010 (2010-12-10)3X60112.55[158]
20712"Collateral"Morgan BeggsJordan Hawley4 Februari 2011 (2011-2-4)3X60122.37[159]
20813"Beacon"Mike RohlDon Whitehead & Holly Henderson11 Februari 2011 (2011-2-11)3X60132.32[160]
20914"Masquerade"Tim ScanlanBryan Q. Miller18 Februari 2011 (2011-2-18)3X60142.22[161]
21015"Fortune"Christopher PetryAnne Cofell Saunders25 Februari 2011 (2011-2-25)3X60152.56[162]
21116"Scion"Al SeptienAl Septien & Turi Meyer4 Maret 2011 (2011-3-4)3X60162.18[163]
21217"Kent"Jeannot SzwarcDrama televisi oleh: Brian Peterson & Kelly Souders
Cerita oleh: Genevieve Sparling
15 April 2011 (2011-4-15)3X60182.37[164]
21318"Booster"Tom WellingGeoff Johns22 April 2011 (2011-4-22)3X60172.35[165]
21419"Dominion"Justin HartleyJohn Chisholm29 April 2011 (2011-4-29)3X60211.99[166]
21520"Prophecy"Mike RohlBryan Q. Miller & Anne Cofell Saunders6 Mei 2011 (2011-5-6)3X60192.07[167]
216
217
21
22
"Finale"Kevin G. Fair
Greg Beeman
Al Septien & Turi Meyer
Brian Peterson & Kelly Souders
13 Mei 2011 (2011-5-13)3X6020
3X6022
3.02[168]

Peringkat NielsenSunting

Berikut ini adalah tabel untuk peringkat musiman, berdasarkan pada total rata-rata perkiraan penonton per episode, dari Smallville di The WB dan The CW. "Peringkat" merujuk kepada bagaimana Smallville diperbandingkan dengan peringkat serial televisi lain yang disiarkan pada jam waktu perdana.

Musim Slot waktu (ET) Jaringan Episode Tayang perdana Akhir tayang Musim TV Peringkat Rata-rata pemirsa
(jutaan)
Tanggal Pemirsa
(jutaan)
Tanggal Pemirsa
(jutaan)
1 Selasa pukul 21:00 The WB 21 16 Oktober 2001 8.40[169] 21 Mei 2002 6.00[170] 2001–02 115[171] 5.90[171]
2 23 24 September 2002 8.70[172] 20 Mei 2003 7.50[173] 2002–03 113[174] 6.30[174]
3 Rabu pukul 20:00 22 1 Oktober 2003 6.80[175] 19 Mei 2004 5.92[176] 2003–04 141[177] 4.96[177]
4 22 22 September 2004 6.07[178] 18 Mei 2005 5.47[179] 2004–05 124[180] 4.40[180]
5 Kamis pukul 20:00 22 29 September 2005 5.90[181] 11 Mei 2006 4.85[182] 2005–06 117[183] 4.70[183]
6 The CW 22 28 September 2006 4.96[184] 17 Mei 2007 4.14[185] 2006–07 125[186] 4.10[186]
7 20 27 September 2007 5.18[187] 15 Mei 2008 3.85[188] 2007–08 175[189] 3.77[189]
8 22 18 September 2008 4.34[190] 14 Mei 2009 3.13[191] 2008–09 152[192] 3.74[192]
9 Jumat pukul 20:00 21 25 September 2009 2.58[193] 14 Mei 2010 2.45[194] 2009–10 129[195] 2.38[195]
10 22 24 September 2010 2.98[196] 13 Mei 2011 3.02[197] 2010–11 202[198] 3.19[199]

Perilisan rumahSunting

Seluruh sepuluh musim dirilis dalam bentuk DVD di kawasan-kawasan 1, 2 dan 4. Musim lima dan enam juga dirilis dalam format HD DVD masing-masing pada 28 November 2006,[200] dan September 18, 2007.[201] Musim enam, tujuh, delapan, sembilan dan sepuluh juga dirilis dalam format Blu-ray. Perilisan DVD meliputi komentar para anggota pemeran dan kru pada episode-episode terpilih, adegan-adegan yang dihapus, dan penampilan di balik layar. Sepasang karya promosional, Chloe Chronicles dan Vengeance Chronicles, masing-masing menyertai set-set kotak musim dua, tiga dan lima. Fitur istimewa lainnya meliputi fungsionalitas interaktif seperti tur Smallville, buku komik dan material DVD-ROM.[202] Set kotak serial lengkap meliputi fitur istimewa tambahan yang tak pernah dirilis sebelumnya.

Musim lengkap Tanggal perilisan DVD Tanggal perilisan Blu-ray
Kawasan 1 Kawasan 2 Kawasan 4 Kawasan A Kawasan B
ke-1 23 September 2003[203] 13 Oktober 2003[204] 3 Desember 2003[205] N/A N/A
ke-2 18 Mei 2004[206] 17 September 2004[207] 1 Januari 2005[208] N/A N/A
ke-3 16 November 2004[209] 18 April 2005[210] 13 Juli 2005[211] N/A N/A
ke-4 13 September 2005[212] 10 Oktober 2005[213] 11 November 2006[214] N/A N/A
ke-5 12 September 2006[215] 28 Agustus 2006[216] 4 April 2007[217] N/A N/A
ke-6 18 September 2007[218] 22 Oktober 2007[219] 5 Maret 2008[220] 18 September 2007 (AS)[221]
9 Oktober 2007 (KAN)[222]
13 Oktober 2008 (BR)[223]
3 Maret 2009 (AUS)[224]
ke-7 9 September 2008[225] 13 Oktober 2008[226] 3 Maret 2009[227] 9 September 2008[228] 13 Oktober 2008 (BR)[229]
3 Maret 2009 (AUS)[230]
ke-8 25 Agustus 2009[231] 12 Oktober 2009[232] 31 Maret 2010[233] 25 Agustus 2009[234] 12 Oktober 2009 (BR)[235]
31 Maret 2010 (AUS)[236]
ke-9 7 September 2010[133] 25 Oktober 2010[237] 2 Maret 2011[238] 7 September 2010[133] 25 Oktober 2010 (BR)[239]
1 Maret 2011 (AUS)[240]
ke-10 29 November 2011[241] 17 Oktober 2011[242] 4 April 2012[243] 29 November 2011[241] 17 Oktober 2011 (BR)[244]
4 April 2012 (AUS)[245]
Serial Lengkap 29 November 2011[241] 17 Oktober 2011[246] N/A N/A N/A

CatatanSunting

  1. ^ Para penulis menganggap "Absolute Justice" adalah dua episode yang diproduksi secara terpisah. Namun, The CW menyiarkannya sebagai episode tunggal, dan kemudian mengemasnya sebagai episode tunggal dalam DVD musim sembilan. Sehingga, "Absolute Justice" adalah episode ke-185 sekaligus ke-186, namun hanya episode ke-185 yang disiarkan.[133][134]
  2. ^ Para penulis menganggap "Absolute Justice" dari musim sembilan adalah dua episode yang diproduksi secara terpisah. Namun, The CW menyiarkannya sebagai episode tunggal, dan kemudian mengemasnya sebagai episode tunggal dalam DVD musim sembilan. Sehingga, "Absolute Justice" adalah episode ke-185 sekaligus ke-186, namun hanya episode ke-185 yang disiarkan. Sehingga, "Homecoming" dianggap merupakan episode ke-200 yang diproduksi, namun ke-199 yang disiarkan. CW menganggap "Homecoming" adalah episode ke-200.[149][150]

ReferensiSunting

  1. ^ Jessica Seid (January 24, 2006). "'Gilmore Girls' meet 'Smackdown':CW Network to combine WB, UPN in CBS-Warner venture beginning in September". CNN Money. Diakses tanggal August 19, 2007. 
  2. ^ Seth Gunderson (November 5, 2001). "Smallville, Kansas. The biggest little town you've ever seen". The Trades. Diarsipkan dari versi asli tanggal October 11, 2007. Diakses tanggal May 22, 2007. 
  3. ^ a b c d e f g h i j k l m n o p q r s t "Episode List: Smallville – Season 1". TV Tango. Diakses tanggal May 17, 2014. 
  4. ^ a b c d e f g h i j k l m n o p q r s t u v w "Episode List: Smallville – Season 2". TV Tango. Diakses tanggal May 17, 2014. 
  5. ^ a b c d e f g h i j k l m Smallville – Series – Episode List – TV Tango
  6. ^ "Weekly Program Rankings". ABC Medianet. February 24, 2004. Diakses tanggal March 28, 2009. 
  7. ^ "Weekly Program Rankings". ABC Medianet. March 2, 2004. Diakses tanggal March 28, 2009. 
  8. ^ "Weekly Program Rankings". ABC Medianet. March 9, 2004. Diakses tanggal March 28, 2009. 
  9. ^ "Weekly Program Rankings". ABC Medianet. April 20, 2004. Diakses tanggal March 28, 2009. 
  10. ^ "Weekly Program Rankings". ABC Medianet. April 27, 2004. Diakses tanggal March 28, 2009. 
  11. ^ "Weekly Program Rankings". ABC Medianet. May 4, 2004. Diakses tanggal March 28, 2009. 
  12. ^ "Weekly Program Rankings". ABC Medianet. May 11, 2004. Diakses tanggal March 28, 2009. 
  13. ^ "Weekly Program Rankings". ABC Medianet. May 18, 2004. Diakses tanggal March 28, 2009. 
  14. ^ "Weekly Program Rankings". ABC Medianet. May 25, 2004. Diakses tanggal March 28, 2009. 
  15. ^ "Weekly Program Rankings". ABC Medianet. September 29, 2004. Diakses tanggal March 28, 2009. 
  16. ^ "Weekly Program Rankings". ABC Medianet. October 5, 2004. Diakses tanggal March 28, 2009. 
  17. ^ "Weekly Program Rankings". ABC Medianet. October 12, 2004. Diakses tanggal March 28, 2009. 
  18. ^ "Weekly Program Rankings". ABC Medianet. October 19, 2004. Diakses tanggal March 28, 2009. 
  19. ^ "Weekly Program Rankings". ABC Medianet. October 26, 2004. Diakses tanggal March 28, 2009. 
  20. ^ "Weekly Program Rankings". ABC Medianet. November 2, 2004. Diakses tanggal March 28, 2009. 
  21. ^ "Weekly Program Rankings Report". ABC Medianet. November 9, 2004. Diakses tanggal March 28, 2009. 
  22. ^ "Weekly Program Rankings". ABC Medianet. November 16, 2004. Diakses tanggal March 28, 2009. 
  23. ^ "Weekly Program Rankings". ABC Medianet. November 23, 2004. Diakses tanggal March 28, 2009. 
  24. ^ "Weekly Program Rankings". ABC Medianet. December 7, 2004. Diakses tanggal March 28, 2009. 
  25. ^ "Weekly Program Rankings". ABC Medianet. February 1, 2005. Diakses tanggal March 28, 2009. 
  26. ^ "Weekly Program Rankings". ABC Medianet. February 8, 2005. Diakses tanggal March 28, 2009. 
  27. ^ "Weekly Program Rankings". ABC Medianet. February 15, 2005. Diakses tanggal March 28, 2009. 
  28. ^ "Weekly Program Rankings". ABC Medianet. February 23, 2005. Diakses tanggal March 28, 2009. 
  29. ^ "Weekly Program Rankings". ABC Medianet. March 1, 2005. Diakses tanggal March 28, 2009. 
  30. ^ "Weekly Program Rankings". ABC Medianet. March 8, 2005. Diakses tanggal March 28, 2009. 
  31. ^ "Weekly Program Rankings". ABC Medianet. April 19, 2005. Diakses tanggal March 28, 2009. 
  32. ^ "Weekly Program Rankings". ABC Medianet. April 26, 2005. Diakses tanggal March 28, 2009. 
  33. ^ "Weekly Program Rankings". ABC Medianet. May 3, 2005. Diakses tanggal March 28, 2009. 
  34. ^ "Weekly Program Rankings". ABC Medianet. May 10, 2005. Diakses tanggal March 28, 2009. 
  35. ^ "Weekly Program Rankings". ABC Medianet. May 17, 2005. Diakses tanggal March 28, 2009. 
  36. ^ "Weekly Program Rankings". ABC Medianet. May 24, 2005. Diakses tanggal March 28, 2009. 
  37. ^ "Weekly Program Rankings". ABC Medianet. October 4, 2005. Diakses tanggal March 28, 2009. 
  38. ^ "Weekly Program Rankings". ABC Medianet. October 11, 2005. Diakses tanggal March 28, 2009. 
  39. ^ "Weekly Program Rankings". ABC Medianet. October 18, 2005. Diakses tanggal March 28, 2009. 
  40. ^ "Weekly Program Rankings". ABC Medianet. October 25, 2005. Diakses tanggal March 28, 2009. 
  41. ^ "Weekly Program Rankings". ABC Medianet. November 1, 2005. Diakses tanggal March 28, 2009. 
  42. ^ "Weekly Program Rankings". ABC Medianet. November 8, 2005. Diakses tanggal March 28, 2009. 
  43. ^ "Weekly Program Rankings". ABC Medianet. November 15, 2005. Diakses tanggal March 28, 2009. 
  44. ^ "Weekly Program Rankings". ABC Medianet. November 22, 2005. Diakses tanggal March 28, 2009. 
  45. ^ "Weekly Program Rankings". ABC Medianet. December 13, 2005. Diakses tanggal March 28, 2009. 
  46. ^ "Weekly Program Rankings". ABC Medianet. January 18, 2006. Diakses tanggal March 28, 2009. 
  47. ^ "Weekly Program Rankings". ABC Medianet. January 24, 2006. Diakses tanggal March 28, 2009. 
  48. ^ "Weekly Program Rankings". ABC Medianet. January 31, 2006. Diakses tanggal March 28, 2009. 
  49. ^ "Weekly Program Rankings". ABC Medianet. February 7, 2006. Diakses tanggal March 28, 2009. 
  50. ^ "Weekly Program Rankings". ABC Medianet. February 14, 2006. Diakses tanggal March 28, 2009. 
  51. ^ "Weekly Program Rankings". ABC Medianet. February 22, 2006. Diakses tanggal March 28, 2009. 
  52. ^ "Weekly Program Rankings". ABC Medianet. April 4, 2006. Diakses tanggal March 28, 2009. 
  53. ^ "Weekly Program Rankings". ABC Medianet. April 11, 2006. Diakses tanggal March 28, 2009. 
  54. ^ "Weekly Program Rankings". ABC Medianet. April 18, 2006. Diakses tanggal March 28, 2009. 
  55. ^ "Weekly Program Rankings". ABC Medianet. April 25, 2006. Diakses tanggal March 28, 2009. 
  56. ^ "Weekly Program Rankings". ABC Medianet. May 2, 2006. Diakses tanggal March 28, 2009. 
  57. ^ "Weekly Program Rankings". ABC Medianet. May 9, 2006. Diakses tanggal March 28, 2009. 
  58. ^ "Weekly Program Rankings". ABC Medianet. May 16, 2006. Diakses tanggal March 28, 2009. 
  59. ^ "Weekly Program Rankings". ABC Medianet. October 3, 2006. Diakses tanggal March 28, 2009. 
  60. ^ "Weekly Program Rankings". ABC Medianet. October 10, 2006. Diakses tanggal March 28, 2009. 
  61. ^ "Weekly Program Rankings". ABC Medianet. October 17, 2006. Diakses tanggal March 28, 2009. 
  62. ^ "Weekly Program Rankings". ABC Medianet. October 24, 2006. Diakses tanggal March 28, 2009. 
  63. ^ "Weekly Program Rankings". ABC Medianet. October 31, 2006. Diakses tanggal March 28, 2009. 
  64. ^ "Weekly Program Rankings". ABC Medianet. November 7, 2006. Diakses tanggal March 28, 2009. 
  65. ^ "Weekly Program Rankings". ABC Medianet. November 14, 2006. Diakses tanggal March 28, 2009. 
  66. ^ "Weekly Program Rankings". ABC Medianet. November 21, 2006. Diakses tanggal March 28, 2009. 
  67. ^ "Weekly Program Rankings". ABC Medianet. December 12, 2006. Diakses tanggal March 28, 2009. 
  68. ^ "Weekly Program Rankings". ABC Medianet. January 17, 2007. Diakses tanggal March 28, 2009. 
  69. ^ "Weekly Program Rankings". ABC Medianet. January 23, 2007. Diakses tanggal March 28, 2009. 
  70. ^ "Weekly Program Rankings". ABC Medianet. January 30, 2007. Diakses tanggal March 28, 2009. 
  71. ^ "Weekly Program Rankings". ABC Medianet. February 6, 2007. Diakses tanggal March 28, 2009. 
  72. ^ "Weekly Program Rankings". ABC Medianet. February 13, 2007. Diakses tanggal March 28, 2009. 
  73. ^ "Weekly Program Rankings". ABC Medianet. February 21, 2007. Diakses tanggal March 28, 2009. 
  74. ^ "Weekly Program Rankings". ABC Medianet. March 20, 2007. Diakses tanggal March 28, 2009. 
  75. ^ "Weekly Program Rankings". ABC Medianet. March 27, 2007. Diakses tanggal March 28, 2009. 
  76. ^ "Weekly Program Rankings". ABC Medianet. April 24, 2007. Diakses tanggal March 28, 2009. 
  77. ^ "Weekly Program Rankings". ABC Medianet. May 1, 2007. Diakses tanggal March 28, 2009. 
  78. ^ "Weekly Program Rankings". ABC Medianet. May 8, 2007. Diakses tanggal March 28, 2009. 
  79. ^ "Weekly Program Rankings". ABC Medianet. May 15, 2007. Diakses tanggal March 28, 2009. 
  80. ^ "Weekly Program Rankings". ABC Medianet. May 22, 2007. Diarsipkan dari versi asli tanggal May 28, 2010. Diakses tanggal March 28, 2009. 
  81. ^ "Weekly Program Rankings". ABC Medianet. October 2, 2007. Diakses tanggal March 28, 2009. 
  82. ^ "Weekly Program Rankings". ABC Medianet. October 9, 2007. Diakses tanggal March 28, 2009. 
  83. ^ "Weekly Program Rankings". ABC Medianet. October 16, 2007. Diakses tanggal March 28, 2009. 
  84. ^ "Weekly Program Rankings". ABC Medianet. October 23, 2007. Diakses tanggal March 28, 2009. 
  85. ^ "Weekly Program Rankings". ABC Medianet. October 30, 2007. Diakses tanggal March 28, 2009. 
  86. ^ Calabria, Rosario T. (November 2, 2007). "Broadcast TV Ratings for November 1, 2007". Entertainment Now. Diakses tanggal April 19, 2008. 
  87. ^ "Weekly Program Rankings". ABC Medianet. November 13, 2007. Diakses tanggal March 28, 2009. 
  88. ^ "Weekly Program Rankings". ABC Medianet. November 20, 2007. Diakses tanggal March 28, 2009. 
  89. ^ Gorman, Bill (December 19, 2007). "Top CW Primetime Shows, December 10–16". TV by the Numbers. Diakses tanggal November 22, 2008. 
  90. ^ "Weekly Program Rankings". ABC Medianet. February 5, 2008. Diakses tanggal March 28, 2009. 
  91. ^ "Weekly Program Rankings". ABC Medianet. February 12, 2008. Diakses tanggal March 28, 2009. 
  92. ^ "Weekly Program Rankings". ABC Medianet. February 20, 2008. Diakses tanggal March 28, 2009. 
  93. ^ "Weekly Program Rankings". ABC Medianet. March 18, 2008. Diakses tanggal March 28, 2009. 
  94. ^ "Weekly Program Rankings". ABC Medianet. March 25, 2008. Diakses tanggal March 28, 2009. 
  95. ^ "Weekly Program Rankings". ABC Medianet. April 1, 2008. Diakses tanggal March 28, 2009. 
  96. ^ "Weekly Program Rankings". ABC Medianet. April 22, 2008. Diakses tanggal March 28, 2009. 
  97. ^ "Weekly Program Rankings". ABC Medianet. April 29, 2008. Diakses tanggal March 28, 2009. 
  98. ^ "Weekly Program Rankings". ABC Medianet. May 1, 2008. Diakses tanggal March 28, 2009. 
  99. ^ "Weekly Program Rankings". ABC Medianet. May 13, 2008. Diakses tanggal March 28, 2009. 
  100. ^ "Weekly Program Rankings". ABC Medianet. May 20, 2008. Diakses tanggal March 28, 2009. 
  101. ^ Gorman, Bill (September 23, 2008). "Top CW Primetime Shows, September 15–21". TV by the Numbers. Diakses tanggal November 22, 2008. 
  102. ^ Gorman, Bill (September 30, 2008). "Top CW Primetime Shows, September 22–28". TV by the Numbers. Diakses tanggal November 22, 2008. 
  103. ^ Gorman, Bill (October 14, 2008). "Top CW Primetime Shows, October 6–12". TV by the Numbers. Diakses tanggal November 22, 2008. 
  104. ^ Gorman, Bill (October 7, 2008). "Top CW Primetime Shows, September 29 – October 5". Diakses tanggal November 22, 2008. 
  105. ^ Gorman, Bill (October 21, 2008). "Top CW Primetime Shows, October 13–19". TV by the Numbers. Diakses tanggal November 22, 2008. 
  106. ^ Seidman, Robert (October 29, 2008). "Top CW Primetime Shows, October 20–26". TV by the Numbers. Diakses tanggal November 22, 2008. 
  107. ^ Seidman, Robert (November 4, 2008). "Top CW Primetime Shows, October 27 – November 2". TV by the Numbers. Diakses tanggal November 22, 2008. 
  108. ^ Seidman, Robert (November 11, 2008). "Top CW Primetime Shows, November 3–9". TV by the Numbers. Diakses tanggal November 22, 2008. 
  109. ^ Seidman, Robert (November 18, 2008). "Top CW Primetime Shows, November 10–16, 2008". TV by the Numbers. Diakses tanggal November 22, 2008. 
  110. ^ Seidman, Robert (November 25, 2008). "Top CW Primetime Shows, November 17–23". TV by the Numbers. Diakses tanggal November 25, 2008. 
  111. ^ Seidman, Robert (January 21, 2009). "Top CW Primetime Shows, January 12–18". TV by the Numbers. Diakses tanggal January 21, 2009. 
  112. ^ Seidman, Robert (January 27, 2009). "Top CW Primetime Shows, January 19–25, 2009". TV by the Number. Diakses tanggal February 22, 2009. 
  113. ^ Seidman, Robert (February 3, 2009). "Top CW Primetime Shows, January 26 – February 1, 2009". TV by the Numbers. Diakses tanggal February 5, 2009. 
  114. ^ Seidman, Robert (February 10, 2009). "Top CW Primetime Shows, February 2–8, 2009". TV by the Numbers. Diakses tanggal February 11, 2009. 
  115. ^ Seidman, Robert (March 17, 2009). "Top CW Primetime Shows, March 9–15, 2009". TV by the Numbers. Diakses tanggal March 20, 2009. 
  116. ^ Seidman, Robert (March 24, 2009). "Top CW Primetime Shows, March 16–22, 2009". TV by the Numbers. Diakses tanggal March 25, 2009. 
  117. ^ Seidman, Robert (March 31, 2009). "Top CW Primetime Shows, March 23–29, 2009". TV by the Numbers. Diakses tanggal April 1, 2009. 
  118. ^ Seidman, Robert (April 7, 2009). "Top CW Primetime Shows, March 30 – April 5, 2009". TV by the Numbers. Diakses tanggal April 7, 2009. 
  119. ^ Seidman, Robert (May 2, 2009). "Top CW Primetime Shows, April 20–26, 2009". TV by the Numbers. Diakses tanggal May 2, 2009. 
  120. ^ Seidman, Robert (May 6, 2009). "Top CW Primetime Shows, April 27 – May 3, 2009". TV by the Numbers. Diakses tanggal May 12, 2009. 
  121. ^ Seidman, Robert (May 12, 2009). "Top CW Primetime Shows, May 4–10, 2009". TV by the Numbers. Diakses tanggal May 12, 2009. 
  122. ^ Seidman, Robert (May 19, 2009). "Top CW Primetime Shows, May 11–17, 2009". TV by the Numbers. Diakses tanggal May 20, 2009. 
  123. ^ Gorman, Bill (October 12, 2009). "Dollhouse Premiere 18–49 Rating Increases To A 1.5 Via DVR; Hopeful or Futile?". TV by the Numbers. Diakses tanggal October 20, 2009. 
  124. ^ Berman, Marc (October 20, 2009). "ABC Wins Monday Overnights; Fox the Network to Beat Among Adults 18–49". MediaWeek.com. Diakses tanggal October 21, 2009. 
  125. ^ Seidman, Robert (October 10, 2009). "TV Ratings: Dollhouse rises; Ghost Whisperer leads CBS to win". TV by the Numbers. Diakses tanggal October 10, 2009. 
  126. ^ Seidman, Robert (November 2, 2009). "Smallville sees HUGE DVR increases DVR viewer increases: House most DVR'd; Fringe biggest % increase". TV by the Numbers. Diakses tanggal November 2, 2009. 
  127. ^ Gorman, Bill (October 24, 2009). "Updated TV Ratings: Dollhouse hits low note; Medium wins with adults 18–49". TV by the Numbers. Diakses tanggal October 24, 2009. 
  128. ^ Seidman, Robert (November 16, 2009). "crazed #Smallville fans, 10/30 episode boosted with DVR from L+SD 2.565M to L+7 3.24 million. 18–49 went from a 1.1 rating to a 1.5 rating". Twitter. Diakses tanggal November 18, 2009. 
  129. ^ Seidman, Robert (November 9, 2009). "UPDATED Friday Broadcast Finals: Smallville hits several season highs". TV by the Numbers. Diakses tanggal November 9, 2009. 
  130. ^ "Live Plus 7 Day Ratings Update". MediaWeek. November 17, 2009. Diarsipkan dari versi asli tanggal November 20, 2009. Diakses tanggal November 18, 2009. 
  131. ^ Seidman, Robert (November 21, 2009). "TV Ratings:Ghost Whisperer leads night with adults 18–49; Shrek the Third helps ABC". TV by the Numbers. Diakses tanggal November 21, 2009. 
  132. ^ Seidman, Robert (January 30, 2010). "TV Ratings: CBS Wins Slow Friday; Smallville returns; Dollhouse finishes". TV by the Numbers. Diakses tanggal February 6, 2011. 
  133. ^ a b c David Lambert (June 17, 2010). "Final (Earlier!) Release Date and Extras for The Complete 9th Season on DVD and Blu-ray". TVShowsOnDVD.com. Diarsipkan dari versi asli tanggal June 19, 2010. Diakses tanggal June 17, 2010. 
  134. ^ "Smallville writers respond". Twitter. February 19, 2010. Diakses tanggal March 9, 2010. 
  135. ^ Seidman, Robert (February 6, 2010). "TV Ratings: CBS Wins Friday Again; Two New Hours of Smallville Are Better than One for CW". TV by the Numbers. Diakses tanggal March 28, 2010. 
  136. ^ Seidman, Robert (February 13, 2010). "TV Ratings: Vancouver Opening Ceremonies Average 34.5 32.6 Million Viewers". TV by the Numbers. Diakses tanggal March 28, 2010. 
  137. ^ Seidman, Robert (February 20, 2010). "TV Ratings: Olympics on NBC Crushes Competition; Smallville Steady". TV by the Numbers. Diakses tanggal March 28, 2010. 
  138. ^ Seidman, Robert (February 27, 2010). "TV Ratings: Olympics Easily Skates To Victory; Smallville Up Slightly". TV by the Numbers. Diakses tanggal March 28, 2010. 
  139. ^ "Friday Broadcast Finals: "Smallville" Rises". Tvbythenumbers.com.com. April 5, 2010. Diakses tanggal April 5, 2010. 
  140. ^ Seidman, Robert (April 10, 2010). "TV Ratings: As Expected "Ghost Whisperer" and "Medium" Rebound as "Miami Medical" Falls, But..." TV by the Numbers. Diakses tanggal February 7, 2011. 
  141. ^ Seidman, Robert (April 17, 2010). "TV Ratings: The Food Revolution Continues, Weakly; Miami Medical, Smallville Fall". TV by the Numbers. Diakses tanggal February 7, 2011. 
  142. ^ Gorman, Bill (April 24, 2010). "TV Ratings: Dateline Leads NBC Win, As Food Revolution Ends Without A Bang". TV by the Numbers. Diakses tanggal February 7, 2011. 
  143. ^ ""Smallville" & "Miami Medical" Adjusted Down in Friday Finals – TV Ratings, Nielsen Ratings, Television Show Ratings". TVbytheNumbers.com. May 3, 2010. Diakses tanggal May 19, 2010. 
  144. ^ Seidman, Robert (May 8, 2010). "TV Ratings: Friday Night Lights Returns Quietly; "Primetime: What Would You Do?" Leads ABC". TV by the Numbers. Diakses tanggal February 7, 2011. 
  145. ^ Seidman, Robert (May 15, 2010). "TV Ratings: Primetime: What Would You Do?, 20/20" Pace ABC To Win; "Smallville" Up". TV by the Numbers. Diakses tanggal February 7, 2011. 
  146. ^ Gorman, Bill (September 27, 2010). "Friday Finals: Supernatural Up; Dateline Down". TV by the Numbers. Diakses tanggal September 27, 2010. 
  147. ^ Seidman, Robert (October 5, 2010). "Friday Finals: No Changes With 18–49 Ratings for Originals". TV by the Numbers. Diakses tanggal October 5, 2010. 
  148. ^ Gorman, Bill (October 11, 2010). "Friday Final Ratings: Dateline, Outlaw, Good Guys, Supernatural Adjusted Down". TV by the Numbers. Diakses tanggal October 12, 2010. 
  149. ^ "Smallville writers respond". Twitter. February 19, 2010. Diakses tanggal March 9, 2010. 
  150. ^ David Lambert (June 17, 2010). "Final (Earlier!) Release Date and Extras for The Complete 9th Season on DVD and Blu-ray". TVShowsOnDVD.com. Diarsipkan dari versi asli tanggal June 19, 2010. Diakses tanggal June 17, 2010. 
  151. ^ Seidman, Robert (October 18, 2010). "Friday Final Ratings: Medium Adjusted Down, Smallville, Supernatural Hold Preliminary Ratings". TV by the Numbers. Diakses tanggal October 19, 2010. 
  152. ^ Gorman, Bill (October 25, 2010). "Friday Final Ratings: Smallville Adjusted Up; CSI:NY, Dateline Adjusted Down". TV by the Numbers. Diakses tanggal October 25, 2010. 
  153. ^ Seidman, Robert (November 1, 2010). "Friday Final Ratings: The Great Pumpkin Rises". TV by the Numbers. Diakses tanggal November 2, 2010. 
  154. ^ Gorman, Bill (November 8, 2010). "Friday Final Ratings: What Would You Do?, 20/20, Blue Bloods Adjusted Up". TV by the Numbers. Diakses tanggal November 8, 2010. 
  155. ^ Seidman, Robert (November 15, 2010). "Friday Final Ratings: 20/20 Down a Tenth; Smallville Still Rocked w/Teri Hatcher". TV by the Numbers. Diakses tanggal November 15, 2010. 
  156. ^ Seidman, Robert (November 22, 2010). "Friday Final Ratings: CSI: NY Adjusted Down; School Pride Adjusted Up". TV by the Numbers. Diakses tanggal November 23, 2010. 
  157. ^ Gorman, Bill (December 6, 2010). "Friday Final Ratings: No Adjustments For Smallville, Supernatural, Or Any Other Shows". TV by the Numbers. Diakses tanggal December 6, 2010. 
  158. ^ Seidman, Robert (December 13, 2010). "Friday Final Ratings: 'Supernanny,' 'Primetime,' Adjusted Up; '20/20' Adjusted Down; No Changes for Smallville, Supernatural, & Others". TV by the Numbers. Diakses tanggal December 14, 2010. 
  159. ^ Seidman, Gorman (February 7, 2011). "Friday Finals: No Adjustments for 'Fringe,' 'Supernatural,' 'Smallville' or Any Other Show's 18–49 Ratings". TV by the Numbers. Diakses tanggal February 8, 2011. 
  160. ^ Bill Gorman (February 12, 2011). "Updated TV Ratings Friday: 'Fringe' Falls Further, 'Smallville,' 'Supernatural,' Down; 'The Defenders,' 'CSI:NY' Hit Lows". TV By The Numbers. Diakses tanggal February 12, 2011. 
  161. ^ Seidman, Robert (February 22, 2011). "Friday Final Ratings: 'Blue Bloods' Falls; No Adjustments for 'Fringe,' 'Smallville' and 'Supernatural". TV by the Numbers. Diakses tanggal February 22, 2011. 
  162. ^ Gorman, Bill (February 28, 2011). "Friday Final Ratings: 'CSI:NY' Adjusted Up; No Adjustments For 'Fringe,' 'Supernatural,' 'Smallville'". TV by the Numbers. Diakses tanggal February 28, 2011. 
  163. ^ Seidman, Robert (March 7, 2011). "Friday Final Ratings: 'Smallville' Adjusted Down, 20/20 Adjusted Up". TV by the Numbers. Diakses tanggal March 8, 2011. 
  164. ^ Seidman, Robert (April 11, 2011). "Friday Final Ratings: 'Fringe,' 'Chaos' and 'Kitchen Nightmares' Adjusted Up". TV by the Numbers. Diakses tanggal April 19, 2011. 
  165. ^ Seidman, Robert (April 25, 2011). "Friday Final Ratings: 'Smallville' Adjusted Up; 'Fringe' Stays at Series Low; 'Friday Night Lights' Adjusted Down". TV by the Numbers. Diakses tanggal April 25, 2011. 
  166. ^ Gorman, Bill (May 2, 2011). "Friday Final Ratings: 'Friday Night Lights,' Two Wedding Shows Adjusted Up; No Adjustments For 'Fringe,' 'Smallville,' 'Supernatural'". TV by the Numbers. Diakses tanggal May 2, 2011. 
  167. ^ Gorman, Bill (May 9, 2011). "Friday Final Ratings: 'Supernatural,' 'CSI:NY' Adjusted Up, No Adjustments To 'Fringe'". TV by the Numbers. Diakses tanggal May 9, 2011. 
  168. ^ Seidman, Robert (May 16, 2011). "Friday Final Ratings: 'CSI:NY,' 'Blue Bloods,' 'Friday Night Lights,' and 'Kitchen Nightmares Adjusted Up, No Adjustments To 'Smallville'". TV by the Numbers. Diakses tanggal May 16, 2011. 
  169. ^ Gunderson, Seth (2001-11-05). "Smallville, Kansas. The biggest little town you've ever seen". The Trades. Diarsipkan dari versi asli tanggal October 11, 2007. Diakses tanggal 2007-05-22. 
  170. ^ Associated Press (2002-05-30), "Nielsen Ratings", St. Paul Pioneer Press, Saint Paul, Minnesota, hlm. B6, (unknown ID) 0205290272 
  171. ^ a b "How did your favorite show rate? (2001–02)". USA Today. May 28, 2002. Diakses tanggal May 25, 2007. 
  172. ^ "WB is getting its mojo back". Medialifemagazine.com. September 26, 2002. Diarsipkan dari versi asli tanggal July 14, 2011. Diakses tanggal May 19, 2010. 
  173. ^ TV Listings for – May 20, 2003 – TV Tango
  174. ^ a b "2002–03 Ratings". Diakses tanggal May 25, 2007. 
  175. ^ TV Listings for – October 1, 2003 – TV Tango
  176. ^ "Weekly Program Rankings". ABC Medianet. May 25, 2004. Diakses tanggal March 28, 2009. 
  177. ^ a b "2003–04 Ratings". ABC Medianet. Diarsipkan dari versi asli tanggal September 30, 2007. Diakses tanggal May 25, 2007. 
  178. ^ "Weekly Program Rankings". ABC Medianet. September 29, 2004. Diarsipkan dari versi asli tanggal July 18, 2014. Diakses tanggal March 28, 2009. 
  179. ^ "Weekly Program Rankings". ABC Medianet. May 24, 2005. Diarsipkan dari versi asli tanggal May 16, 2009. Diakses tanggal March 28, 2009. 
  180. ^ a b "2004–05 Primetime Wrap". The Hollywood Reporter. May 27, 2005. Diarsipkan dari versi asli tanggal July 8, 2006. Diakses tanggal May 25, 2007. 
  181. ^ "Weekly Program Rankings". ABC Medianet. October 4, 2005. Diakses tanggal March 28, 2009. 
  182. ^ "Weekly Program Rankings". ABC Medianet. May 16, 2006. Diarsipkan dari versi asli tanggal May 28, 2010. Diakses tanggal March 28, 2009. 
  183. ^ a b "Series". The Hollywood Reporter. May 26, 2006. Diarsipkan dari versi asli tanggal May 19, 2007. Diakses tanggal May 25, 2007. 
  184. ^ "Weekly Program Rankings". ABC Medianet. 2006-10-03. Diarsipkan dari versi asli tanggal January 10, 2015. Diakses tanggal March 28, 2009. 
  185. ^ "Weekly Program Rankings". ABC Medianet. 2007-05-22. Diarsipkan dari versi asli tanggal July 28, 2010. Diakses tanggal March 28, 2009. 
  186. ^ a b "2006–07 primetime wrap". The Hollywood Reporter. May 25, 2007. Diarsipkan dari versi asli tanggal May 28, 2007. Diakses tanggal May 25, 2007. 
  187. ^ "Weekly Program Rankings". ABC Medianet. October 2, 2007. Diarsipkan dari versi asli tanggal May 1, 2011. Diakses tanggal March 28, 2009. 
  188. ^ "Weekly Program Rankings". ABC Medianet. May 20, 2008. Diakses tanggal March 28, 2009. 
  189. ^ a b "Weekly Program Rankings". ABC Medianet. May 20, 2008. Diakses tanggal March 28, 2009. 
  190. ^ Gorman, Bill (September 23, 2008). "Top CW Primetime Shows, September 15–21". TV by the Numbers. Diarsipkan dari versi asli tanggal December 2, 2008. Diakses tanggal November 22, 2008. 
  191. ^ Seidman, Robert (May 19, 2009). "Top CW Primetime Shows, May 11–17, 2009". TV by the Numbers. Diarsipkan dari versi asli tanggal October 5, 2009. Diakses tanggal May 20, 2009. 
  192. ^ a b "Weekly Program Rankings". ABC Medianet. May 19, 2008. Diarsipkan dari versi asli tanggal May 23, 2012. Diakses tanggal May 20, 2009. 
  193. ^ Gorman, Bill (October 12, 2009). "Dollhouse Premiere 18–49 Rating Increases To A 1.5 Via DVR; Hopeful or Futile?". TV by the Numbers. Diarsipkan dari versi asli tanggal October 15, 2009. Diakses tanggal October 20, 2009. 
  194. ^ Paul Millar (May 16, 2010). "2.5m watch 'Smallville' season finale". Digital Spy. Diakses tanggal May 16, 2010. 
  195. ^ a b "Final 2009–10 Broadcast Primetime Show Average Viewership – TV Ratings, Nielsen Ratings, Television Show Ratings". TVbytheNumbers.com. Diarsipkan dari versi asli tanggal June 19, 2010. Diakses tanggal 2010-06-16. 
  196. ^ Gorman, Bill (September 27, 2010). "Friday Finals: Supernatural Up; Dateline Down". TV by the Numbers. Diarsipkan dari versi asli tanggal October 1, 2010. Diakses tanggal September 27, 2010. 
  197. ^ Seidman, Robert (May 16, 2011). "Friday Final Ratings: 'CSI:NY,' 'Blue Bloods,' 'Friday Night Lights,' and 'Kitchen Nightmares Adjusted Up, No Adjustments To 'Smallville'". TV by the Numbers. Diakses tanggal May 16, 2011. 
  198. ^ "2010–11 Season Broadcast Primetime Show Viewership Averages". Tvbythenumbers.com. June 1, 2011. Diarsipkan dari versi asli tanggal August 12, 2014. Diakses tanggal June 1, 2011. 
  199. ^ Gorman, Bill (June 13, 2011). "'Modern Family' Tops DVR Ratings Gain For The 2010–11 Season; 'Fringe' Has Biggest % Increase By DVR". TV by the Numbers. Diakses tanggal June 20, 2011. 
  200. ^ "Season Five (HD-DVD)". TVShowsOnDVD.com. Diarsipkan dari versi asli tanggal September 8, 2009. Diakses tanggal March 28, 2010. 
  201. ^ "Season Six (HD-DVD)". TVShowsOnDVD.com. Diarsipkan dari versi asli tanggal August 23, 2010. Diakses tanggal March 28, 2010. 
  202. ^ Tambahan-tambahan DVD dicantumkan pada bagian belakang kemasan masing-masing sampul.
  203. ^ "Season 1 (Region 1)". TVShowsOnDVD.com. Diarsipkan dari versi asli tanggal July 7, 2009. Diakses tanggal March 22, 2009. 
  204. ^ "Season 1 (Region 2)". Amazon France. Diakses tanggal December 13, 2006. 
  205. ^ "Season 1 (Region 4)". JB HI-FI online. Diakses tanggal January 12, 2007. 
  206. ^ "Season 2 (Region 1)". TVShowsOnDVD.com. Diarsipkan dari versi asli tanggal November 5, 2008. Diakses tanggal March 22, 2009. 
  207. ^ "Season 2 (Region 2)". Amazon France. Diakses tanggal December 13, 2006. 
  208. ^ "Season 2 (Region 4)". JB HI-FI online. Diakses tanggal July 12, 2009. 
  209. ^ "Season 3 (Region 1)". TVShowsOnDVD.com. Diarsipkan dari versi asli tanggal November 4, 2008. Diakses tanggal March 22, 2009. 
  210. ^ "Season 3 (Region 2)". Amazon France. Diakses tanggal December 13, 2006. 
  211. ^ "Season 3 (Region 4)". JB HI-FI online. Diakses tanggal July 12, 2009. 
  212. ^ "Season 4 (Region 1)". TVShowsOnDVD.com. Diarsipkan dari versi asli tanggal November 4, 2008. Diakses tanggal March 22, 2009. 
  213. ^ "Season 4 (Region 2)". Amazon France. Diakses tanggal December 13, 2006. 
  214. ^ "Season 4 (Region 4)". JB HI-FI online. Diakses tanggal July 12, 2009. 
  215. ^ "Season 5 (Region 1)". TVShowsOnDVD.com. Diarsipkan dari versi asli tanggal November 4, 2008. Diakses tanggal March 22, 2009. 
  216. ^ "Season 5 (Region 2)". Amazon France. Diakses tanggal December 13, 2006. 
  217. ^ "Season 5 (Region 4)". Ezydvd. Diarsipkan dari versi asli tanggal January 15, 2007. Diakses tanggal January 12, 2007. 
  218. ^ David Lambert (May 23, 2007). "Smallville ;— Clark's secret is out: 6th Season Street date, costs, and extras!". TVShowsOnDVD.com. Diarsipkan dari versi asli tanggal April 27, 2009. Diakses tanggal July 12, 2009. 
  219. ^ "Season 6 (Region 2)". Amazon. Diakses tanggal August 15, 2007. 
  220. ^ "Season 6 (Region 4)". Ezydvd. Diarsipkan dari versi asli tanggal October 19, 2009. Diakses tanggal October 18, 2009. 
  221. ^ "Smallville — The Complete Sixth Season — Blu-ray". TVShowsOnDVD.com. Diarsipkan dari versi asli tanggal November 4, 2008. Diakses tanggal March 22, 2009. 
  222. ^ "Smallville: Season 6 (Blu-ray)". Amazon.ca. Diakses tanggal November 11, 2009. 
  223. ^ "Smallville — The Complete Sixth Season [Blu-ray] (2006)". Amazon.co.uk. Diakses tanggal November 11, 2009. 
  224. ^ "Smallville — The Complete 6th Season (4 Disc Set) (Blu-ray)". ezydvd. Diarsipkan dari versi asli tanggal October 13, 2009. Diakses tanggal November 11, 2009. 
  225. ^ David Lambert (May 21, 2008). "Smallville ;— Release Date, Package Art & Extras for 7th Season DVDs and Blu-ray Discs!". TVShowsOnDVD.com. Diarsipkan dari versi asli tanggal May 25, 2008. Diakses tanggal May 21, 2008. 
  226. ^ "Smallville season 7 (Region 2)". Amazon.uk. Diakses tanggal March 22, 2009. 
  227. ^ "Season 7 (Region 4)". Ezydvd. Diarsipkan dari versi asli tanggal December 18, 2008. Diakses tanggal December 30, 2008. 
  228. ^ "Smallville — The Complete Seventh Season — Blu-ray". TVShowsOnDVD.com. Diarsipkan dari versi asli tanggal November 4, 2008. Diakses tanggal March 22, 2009. 
  229. ^ "Smallville — The Complete Seventh Season (Blu-ray)". Amazon.co.uk. Diakses tanggal November 11, 2009. 
  230. ^ "Smallville — The Complete 7th Season (3 Disc Set) (Blu-ray)". ezydvd. Diarsipkan dari versi asli tanggal October 7, 2009. Diakses tanggal November 11, 2009. 
  231. ^ David Lambert (June 3, 2009). "DVD & Blu-ray Official 8th Season Announcement: Extras, 3D Box Art & August Date". TVShowsOnDVD.com. Diarsipkan dari versi asli tanggal June 6, 2009. Diakses tanggal June 3, 2009. 
  232. ^ "DVD Official 8th Season (Region 2)". Amazon.uk. Diakses tanggal March 22, 2009. 
  233. ^ "Smallville — The Complete 8th Season (6 Disc Set)". EzyDVD. Diarsipkan dari versi asli tanggal January 31, 2010. Diakses tanggal February 16, 2010. 
  234. ^ "Smallville — The Complete Eighth Season — Blu-ray". TVShowsOnDVD.com. Diarsipkan dari versi asli tanggal August 28, 2009. Diakses tanggal March 28, 2010. 
  235. ^ "Smallville — The Complete Eighth Season [Blu-ray] (2009)". Amazon.co.uk. Diakses tanggal November 11, 2009. 
  236. ^ "Smallville — The Complete 8th Season (4 Disc Set) (Blu-ray)". ezydvd. Diarsipkan dari versi asli tanggal March 22, 2010. Diakses tanggal March 28, 2010. 
  237. ^ "Smallville Complete Ninth Season DVD (Region 2)". amazon.uk. 
  238. ^ "Smallville — The Complete 9th Season (6 Disc Set)". EzyDVD. Diakses tanggal May 16, 2011. 
  239. ^ "Smallville — The Complete Ninth Season [Blu-ray] (2010)". Amazon.co.uk. 
  240. ^ "Smallville — The Complete 9th Season (6 Disc Set)". JB Hi-Fi. Diarsipkan dari versi asli tanggal April 7, 2011. 
  241. ^ a b c "Smallville – Finalized Date, Bonus Items, Packaging for Complete Series and The 10th Season Sets". tvbythenumbers.com. Diarsipkan dari versi asli tanggal August 10, 2011. 
  242. ^ "Smallville Complete Tenth Season DVD (Region 2)". amazon.uk. 
  243. ^ "Smallville – Season 10 DVD". JB Hi-Fi. Diakses tanggal March 12, 2012. 
  244. ^ "Smallville — The Complete Tenth Season [Blu-ray] (2011) (Region Free)". Amazon.co.uk. 
  245. ^ "Smallville – Season 10 Blu-ray". JB Hi-Fi. Diakses tanggal March 12, 2012. 
  246. ^ "Smallville – Season 1–10 Complete [DVD]". amazon.uk. 

Pranala luarSunting